Погода Новый Уренгой

Погода Новый Уренгой : погода сейчас, прогноз погоды и архив. Всё, что Вы хотите узнать о погоде Новый Уренгой!

Хотите узнать прогноз погоды Новый Уренгой? Тогда Вам сюда: Погода Новый Уренгой

Поиск расширенной информации на нашем сайте:

Другие новости

Новости СМИ2

Главная страница сайта

Новости сайта

03.07.2017

Напоминаем, что на нашем специализированном сайте Метеоцентр.Азия вы можете получить высокодетализированные автоматические прогнозы погоды по пунктам России, СНГ и мира в авиационном формате (включающие направление и скорость ветра, видимость, явления погоды, количество и форму облачности, нижнюю и верхнюю границу облачности).


Погода Новый Уренгой - сегодня

Время (UTC), дата Ветер
(°,м/с) 
Видим.   Явления Облачность Т
(°С)
Тd
(°С)
f(%) Тe
(°С)
Pmin
(гПа)
dP
(гПа)
Po
(мм)
O2
(г/м3)
Тmin Tmax R s Состояние
почвы
15 16.04.18 320 (СЗ) 10 км    10/0 средняя, верхняя 
[Ac trans|Ci fib]
-17.8 -19.7 85 -23  1006.5  1.1  749  324    -14.2  0.0     
18 16.04.18 320 (СЗ) 10 км  в посл. час снег  10/3 600 м верхняя 
[Sc|Cs]
-19.5 -21.2 86 -22  1006.7  0.2  749  327           
00 17.04.18 300 (СЗ) 20000 м    10/4 600 м средняя, верхняя 
[Sc|Ac trans|Ci fib]
-23.2 -25.4 82 -28  1008.5  1.2  750  332           
03 17.04.18 310 (СЗ) 20000 м    10/5 300 м средняя, верхняя 
[Sc|Ac trans|Ci fib]
-19.5 -21.9 81 -25  1009.2  0.9  751  327  -23.8    0.0  93  неравномерный
сухой снег
100% 
15 17.04.18 290 (З) 3{10}  10 км    10/0 верхняя 
[Ci fib]
-18.6 -20.6 84 -23  1015.5  0.8  755  328    -15.3  0.0     
18 17.04.18 270 (З) 10 км    10/0 верхняя 
[Ci fib]
-20 -21.6 87 -24  1015  -0.6  755  330           
21 17.04.18 220 (ЮЗ) 10 км    10/8 600 м верхняя 
[Sc|Ci fib]
-20.6 -22.6 84 -26  1014.3  -0.6  754  330           
00 18.04.18 230 (ЮЗ) 20000 м  позёмок  10/0 средняя, верхняя 
[Ac trans|Ci fib]
-18.7 -21.4 79 -26  1013  -1.2  754  328           
03 18.04.18 230 (ЮЗ) 20000 м  позёмок  10/0 верхняя 
[Ci fib]
-16.1 -19.6 74 -23  1011.8  -1.2  753  324  -22      94  неравномерный
сухой снег
100% 
15 18.04.18 200 (Ю) 8-10{13}  10 км  позёмок  10/0 средняя, верхняя 
[Ac trans|Ci fib]
-7.8 -11.1 77 -14  1005.5  -2.1  748  311    -7.1  0.0     
03 19.04.18 190 (Ю) 6{12}  20000 м  позёмок{ливн. осадки}  10/3 300 м средняя, верхняя 
[Sc|Ac trans|Ci fib]
-6 -7.2 91 -11  994.3  -1.2  740  306  -8.8    95  неравномерный
сухой снег
100% 
09 19.04.18 180 (Ю) 20000 м  {ливн. осадки}  10/0 средняя, верхняя 
[Ac trans|Ci fib]
-4.6 -8.6 74 -7  995.4  0.9  741  304           
12 19.04.18 200 (Ю) 20000 м  {ливн. осадки}  10/3 1000 м средняя, верхняя 
[Sc|Ac trans|Ci fib]
-5.6 -8.2 82 -9  995.9  0.4  741  306           
15 19.04.18 300 (СЗ) 10 км  в посл. час ливневой снег  10/4 1000 м кучево-дожд., средняя, верхняя 
[Cb calv|Ac trans|Ci fib]
-8.1 -9.7 88 -10  997.1  1.2  742  309    -3.1  0.5     
18 19.04.18 250 (З) 10 км  {ливн. осадки}  10/5 1000 м верхняя 
[Sc|Ci fib]
-12.9 -14.1 91 -15  997.6  0.3  742  315           
03 20.04.18 190 (Ю) 20000 м  [диам. изморози 2 мм]  10/3 1000 м верхняя 
[Sc|Ci fib]
-15 -16.7 87 -19  997  742  318  -17.8    0.0  95  неравномерный
сухой снег
100% 
06 20.04.18 200 (Ю) 10 км  слаб. ливневой снег  10/3 300 м кучево-дожд., средняя, верхняя 
[Cb calv|Ac trans|Ci fib]
-8.7 -11.4 81 -12  997.2  0.5  742  310           
09 20.04.18 260 (З) 10 км  слаб. ливневой снег  10/3 600 м кучево-дожд., средняя, верхняя 
[Cb calv|Ac trans|Ci fib]
-7.8 -12.1 71 -9  997.6  0.4  742  309           
12 20.04.18 190 (Ю) 20000 м  {ливн. осадки}  10/3 1000 м средняя, верхняя 
[Sc|Ac trans|Cs]
-7.5 -11.4 74 -7  998.1  0.5  743  309           
18 20.04.18 260 (З) 10 км    8/3 1000 м верхняя 
[Sc|Ci fib]
-19.3 -20.6 89 -22  998.7  -0.2  743  324           
21 20.04.18 250 (З) 10 км  [диам. изморози 1 мм]  6/0 верхняя 
[Ci fib]
-23.5 -25.6 83 -24  998.7  -0.2  743  329           
00 21.04.18 230 (ЮЗ) 20000 м  [диам. изморози 5 мм]  10/0 средняя, верхняя 
[Ac trans|Ci fib]
-23.4 -25.7 81 -24  998.3  -0.4  742  329           
03 21.04.18 200 (Ю) 20000 м  [диам. изморози 3 мм]  8/0 верхняя 
[Ci fib]
-19.8 -22 83 -23  998.5  0.2  743  324  -24.8      95  неравномерный
сухой снег
100% 
06 21.04.18 200 (Ю) 20000 м  [диам. изморози 0 мм]  3/0 верхняя 
[Ci fib]
-14.7 -17.1 82 -18  998.4  0.1  743  318           
09 21.04.18 220 (ЮЗ) 20000 м  позёмок  10/3 600 м верхняя 
[Sc|Ci fib]
-11.2 -15 73 -17  998.8  0.5  743  313           
Время (UTC), дата Ветер
(°,м/с) 
Видим.   Явления Облачность Т
(°С)
Тd
(°С)
f(%) Тe
(°С)
Pmin
(гПа)
dP
(гПа)
Po
(мм)
O2
(г/м3)
Тmin Tmax R s Состояние
почвы

Для получения пояснительной информации подведите курсор к названию столбца.

ПОГОДА Новый Уренгой - архив

Всё, что Вы хотите узнать о погоде Новый Уренгой - удобно и подробно!

Выберите нужную дату (начиная с 1 января 2015* года) и нажмите кнопку "Найти".
Будут отображены архивные сводки погоды по пункту Новый Уренгой, начиная с указанной даты.


Отображать данные в формате CSV (для использования в таблицах Excel)


Внимание! Наш архив погоды предназначен исключительно для личного некоммерческого использования в познавательных целях. Если Вам необходимы официальные справки о состоянии погоды (для производственных, юридических, коммерческих и т.п. целей), обращайтесь в органы Росгидромета.

*Примечание: данная дата относится к архиву по метеостанциям СССР (Россия, СНГ, Балтия).
Архив по метеостанциям Зарубежной Европы и Азии (кроме Китая) хранится 10 дней, по другим регионам земного шара (Китай, Африка, Америка, Австралия, Океания) - 1 день.

Новый Уренгой - район местоположения метеостанции


Название, широта, долгота, высота метеостанции:
Новый Уренгой 66.1°ш. 76.5°д. 64 м над ур. моря [Российская Федерация]

Дополнительная информация

В oтличие oт бoльшинства пoгoдных сайтoв мы публикуем пoдрoбную метеoинфoрмацию в детальнoм прoфессиoнальнoм фoрмате.

Характеристики температуры и влажнoсти вoздуха измеряются на высoте 2 м в тени вдали oт зданий и деревьев.
Скoрoсть ветра измеряется на высoте 10 м (на урoвне рoста челoвека скoрoсть ветра ниже в 1.5-2 раза). Если метеoстанция нахoдится в гoрoде или в лесу, тo скoрoсть ветра занижена на 2-4 м/с пo сравнению с oткрытым местoм. Скoрoсть ветра над акватoриями крупных рек и oзёр, а также на вершинах хoлмoв на 2-5 м/с выше, чем в oбычных услoвиях.
Атмoсфернoе давление в разных тoчках местнoсти мoжет значительнo oтличаться oт давления на метеoстанции, в зависимoсти oт услoвий рельефа (при пoдъёме на 10 м давление пoнижается примернo на 1 мм рт.ст.).